[[{"header":{"parameterUnit":"m.s-1","parameterCategory":1,"la1":30.2991,"la2":30.254,"lo1":-89.0895,"lo2":-89.0444,"dy":0.0017,"dx":0.0017,"nx":28,"ny":28,"refTime":"2024-03-03T03:00:00:Z","depth":0,"parameterNumber":2,"parameterNumberName":"U-component_of_WINDS"},"data":[0,0,0,0,0,0,0,0,0,0,0,0,0,0,0,0,0,0,0,0,0,0,0,0,0,0,0,0,0,0,0,0,0,0,0,0,0,0,0,0,0,0,0,0,0,0,0,0,0,0,0,0,0,0,0,0,0,0,-2.4891,-2.489,0,-2.4846,-2.4845,-2.4845,-2.4749,-2.4747,-2.4745,-2.4743,-2.47,-2.4701,-2.4701,0,0,0,0,0,0,0,0,0,0,0,0,0,-2.4897,-2.4898,-2.4891,-2.489,-2.489,-2.4846,-2.4845,-2.4845,-2.4749,-2.4747,-2.4744,-2.4742,-2.47,-2.47,-2.4701,0,0,0,0,0,0,0,0,0,0,0,0,0,-2.4878,-2.4898,-2.4891,-2.4836,-2.4831,-2.4846,-2.4845,-2.4844,-2.4749,-2.4747,-2.4744,-2.4741,-2.4699,-2.47,-2.4701,-2.4766,0,0,-2.4705,-2.4705,0,0,0,0,0,0,0,0,-2.4879,-2.4878,-2.4845,-2.484,-2.4834,-2.48,-2.4832,-2.4818,-2.475,-2.4781,-2.4743,-2.4739,-2.4736,-2.4734,-2.4732,-2.4764,-2.4762,-2.4705,-2.4705,-2.4706,-2.4706,0,0,0,0,0,0,0,-2.488,-2.4879,-2.4873,-2.4845,-2.4838,-2.4816,-2.481,-2.4829,-2.4775,-2.4778,-2.4771,-2.4766,-2.4732,-2.4731,-2.473,-2.4762,-2.4705,-2.4705,-2.4706,-2.4707,-2.4847,-2.485,0,0,0,0,0,0,-2.4889,-2.4881,-2.4874,-2.4872,-2.485,-2.4818,-2.4811,-2.4814,-2.4775,-2.4766,-2.4769,-2.4762,-2.4731,-2.4729,-2.4728,-2.4802,-2.4706,-2.4707,-2.4707,-2.4844,-2.4847,-2.4851,0,0,0,0,0,0,-2.489,-2.489,-2.4876,-2.4874,-2.4871,-2.4821,-2.4825,-2.4815,-2.4813,-2.4768,-2.4758,-2.4777,-2.4728,-2.4727,-2.4757,-2.4799,-2.4707,-2.4708,-2.484,-2.4845,-2.4849,-2.495,0,0,0,0,0,0,-2.489,-2.489,-2.4913,-2.4875,-2.4871,-2.4906,-2.4827,-2.4816,-2.4815,-2.4805,-2.4773,-2.4765,-2.4726,-2.4757,-2.4759,-2.4799,-2.4709,-2.4836,-2.4842,-2.4848,-2.4943,-2.4957,-2.497,0,0,0,0,0,-2.4891,-2.4944,-2.4915,-2.4915,-2.4899,-2.4908,-2.4906,-2.4859,-2.4818,-2.4842,-2.4813,-2.4766,-2.4794,-2.4761,-2.4762,-2.4803,-2.4833,-2.484,-2.4847,-2.4936,-2.4954,-2.497,0,0,0,0,0,0,-2.4989,-2.4938,-2.4905,-2.4948,-2.4933,-2.4892,-2.492,-2.4879,-2.4876,-2.4868,-2.481,-2.4804,-2.4843,-2.4826,-2.4789,-2.4864,-2.4806,-2.4814,-2.4874,-2.489,-2.4904,-2.4907,-2.471,0,0,0,0,0,-2.5015,-2.5026,-2.4981,-2.5023,-2.5017,-2.497,-2.4973,-2.4937,-2.492,-2.4914,-2.4887,-2.4873,-2.4879,-2.4884,-2.4886,-2.494,-2.4932,-2.4969,-2.4983,-2.4994,-2.5002,-2.503,-2.5046,-2.4874,-2.4874,-2.4874,0,0,-2.507,-2.5044,-2.5054,-2.5042,-2.5027,-2.504,-2.4966,-2.4983,-2.4992,-2.4917,-2.4944,-2.4924,-2.4905,-2.4948,-2.4965,-2.4935,-2.5048,-2.5003,-2.5013,-2.5014,-2.5039,-2.5055,-2.5069,-2.4878,-2.4878,-2.4877,0,0,-2.5177,-2.5158,-2.5191,-2.5177,-2.5154,-2.5122,-2.5131,-2.5096,-2.508,-2.5106,-2.505,-2.5062,-2.5072,-2.5061,-2.5057,-2.5161,-2.5118,-2.5164,-2.5235,-2.5263,-2.5277,-2.5289,-2.5326,-2.5341,-2.5171,-2.5171,-2.5172,0,-2.5249,-2.5265,-2.5213,-2.5234,-2.5231,-2.5162,-2.5196,-2.5185,-2.5165,-2.5165,-2.5132,-2.5144,-2.5126,-2.5166,-2.5191,-2.519,-2.5199,-2.5167,-2.5279,-2.529,-2.53,-2.5336,-2.535,-2.5177,-2.5177,-2.5176,-2.5175,0,-2.5354,-2.5367,-2.5397,-2.5378,-2.5378,-2.5406,-2.5359,-2.5366,-2.5332,-2.5304,-2.5333,-2.5309,-2.5306,-2.5313,-2.528,-2.5349,-2.5331,-2.5289,-2.5229,-2.5323,-2.5356,-2.5369,-2.5185,-2.5183,-2.5182,-2.518,0,0,-2.552,-2.5474,-2.5485,-2.5476,-2.5447,-2.5456,-2.5481,-2.5478,-2.5485,-2.5474,-2.5494,-2.5506,-2.5467,-2.5462,-2.5427,-2.5452,-2.5537,-2.5407,-2.5406,-2.5432,-2.5612,-2.5644,-2.566,-2.5509,-2.5511,-2.5513,-2.5614,0,-2.562,-2.5659,-2.5613,-2.5662,-2.5674,-2.561,-2.5632,-2.5617,-2.5593,-2.56,-2.5574,-2.5583,-2.5531,-2.5528,-2.5549,-2.5522,-2.5572,-2.5514,-2.5528,-2.5529,-2.5534,-2.5677,-2.571,-2.5806,-2.5626,-2.5628,-2.563,0,-2.5741,-2.5736,-2.5786,-2.5754,-2.5757,-2.5777,-2.5771,-2.5778,-2.5761,-2.5742,-2.5737,-2.5695,-2.5719,-2.5662,-2.5694,-2.5656,-2.5659,-2.5647,-2.5649,-2.5648,-2.5585,-2.568,-2.5836,-2.585,-2.5649,-2.5648,-2.5646,0,-2.5858,-2.5863,-2.5893,-2.5888,-2.5851,-2.5867,-2.5853,-2.5833,-2.5834,-2.5829,-2.5829,-2.5828,-2.5827,-2.5827,-2.5787,-2.5748,-2.5825,-2.5764,-2.581,-2.5811,-2.5828,-2.5828,-2.5987,-2.5831,-2.5831,-2.5831,-2.583,0,-2.5974,-2.6007,-2.5945,-2.5964,-2.6,-2.5948,-2.5985,-2.5965,-2.5947,-2.5962,-2.5907,-2.5923,-2.5868,-2.5878,-2.5847,-2.5879,-2.5879,-2.5865,-2.5856,-2.5869,-2.5871,-2.587,-2.5862,-2.5834,-2.5834,-2.5833,-2.5832,0,-2.611,-2.6069,-2.6098,-2.6062,-2.6054,-2.6082,-2.6051,-2.6068,-2.604,-2.606,-2.6061,-2.6019,-2.6027,-2.5987,-2.5989,-2.5968,-2.6016,-2.5997,-2.6022,-2.6016,-2.6065,-2.6061,-2.6228,-2.6248,-2.608,-2.6082,-2.6083,0,-2.6186,-2.621,-2.6176,-2.6182,-2.617,-2.618,-2.618,-2.6132,-2.6135,-2.6118,-2.6137,-2.6141,-2.6142,-2.616,-2.6129,-2.6131,-2.6111,-2.617,-2.6111,-2.6124,-2.6112,-2.6111,-2.6113,-2.6182,-2.6184,-2.6186,-2.6187,0,-2.6326,-2.6305,-2.6308,-2.6304,-2.6307,-2.6302,-2.6293,-2.6301,-2.6249,-2.6256,-2.6263,-2.6264,-2.6266,-2.6272,-2.6268,-2.6254,-2.6213,-2.6206,-2.6217,-2.6231,-2.6244,-2.6238,-2.6055,-2.6202,-2.6201,-2.6199,-2.6199,-2.6198,-2.6434,-2.6453,-2.6432,-2.6437,-2.6426,-2.6419,-2.6433,-2.6408,-2.6413,-2.6411,-2.6382,-2.6396,-2.6379,-2.6369,-2.636,-2.6371,-2.6344,-2.6359,-2.6363,-2.6368,-2.6377,-2.6243,-2.637,-2.637,-2.6369,-2.6369,-2.6369,0,-2.6572,-2.6555,-2.6561,-2.655,-2.6555,-2.6515,-2.6504,-2.651,-2.6523,-2.6511,-2.6513,-2.6523,-2.6528,-2.6499,-2.6501,-2.6515,-2.6496,-2.6518,-2.6516,-2.6514,-2.6401,-2.6391,-2.6533,-2.6533,-2.6533,-2.6533,-2.6533,-2.6533,-2.6643,-2.6673,-2.665,-2.6674,-2.6657,-2.667,-2.6667,-2.6662,-2.6651,-2.6665,-2.6669,-2.6649,-2.6631,-2.6631,-2.6635,-2.6626,-2.6629,-2.6657,-2.6642,-2.6537,-2.6521,-2.6506,-2.6497,-2.6658,-2.6658,-2.6754,-2.6755,-2.6755]},{"header":{"parameterUnit":"m.s-1","parameterCategory":1,"la1":30.2991,"la2":30.254,"lo1":-89.0895,"lo2":-89.0444,"dy":0.0017,"dx":0.0017,"nx":28,"ny":28,"refTime":"2024-03-03T03:00:00:Z","depth":0,"parameterNumber":3,"parameterNumberName":"V-component_of_WINDS"},"data":[0,0,0,0,0,0,0,0,0,0,0,0,0,0,0,0,0,0,0,0,0,0,0,0,0,0,0,0,0,0,0,0,0,0,0,0,0,0,0,0,0,0,0,0,0,0,0,0,0,0,0,0,0,0,0,0,0,0,0.3324,0.3324,0,0.3314,0.3314,0.3314,0.3311,0.3311,0.3311,0.3311,0.3301,0.3301,0.33,0,0,0,0,0,0,0,0,0,0,0,0,0,0.3342,0.3341,0.3324,0.3324,0.3324,0.3314,0.3314,0.3314,0.3311,0.3311,0.3311,0.3311,0.3301,0.3301,0.33,0,0,0,0,0,0,0,0,0,0,0,0,0,0.3333,0.3341,0.3324,0.3321,0.3321,0.3314,0.3314,0.3314,0.3311,0.3311,0.3311,0.3311,0.3301,0.3301,0.33,0.3296,0,0,0.3299,0.3299,0,0,0,0,0,0,0,0,0.3334,0.3333,0.3322,0.3321,0.3321,0.3314,0.3317,0.3308,0.3311,0.3315,0.3311,0.3311,0.3305,0.3304,0.3302,0.3295,0.3295,0.3299,0.3298,0.3298,0.3298,0,0,0,0,0,0,0,0.3334,0.3333,0.332,0.3322,0.3321,0.3321,0.332,0.3315,0.331,0.3314,0.3314,0.3313,0.3305,0.3303,0.3302,0.3295,0.3299,0.3298,0.3298,0.3298,0.3285,0.3285,0,0,0,0,0,0,0.3335,0.3333,0.3321,0.332,0.3328,0.3321,0.3319,0.3316,0.331,0.3309,0.3313,0.3313,0.3304,0.3303,0.3302,0.3297,0.3298,0.3298,0.3298,0.3285,0.3285,0.3285,0,0,0,0,0,0,0.3336,0.3334,0.3321,0.3327,0.3325,0.332,0.3317,0.3316,0.3314,0.3309,0.3308,0.3312,0.3304,0.3302,0.3298,0.3297,0.3298,0.3297,0.3285,0.3285,0.3285,0.3287,0,0,0,0,0,0,0.3336,0.3334,0.3332,0.3327,0.3325,0.3317,0.3317,0.3316,0.3313,0.3313,0.3307,0.3306,0.3304,0.3298,0.3297,0.3296,0.3297,0.3285,0.3285,0.3285,0.3287,0.3287,0.3287,0,0,0,0,0,0.3337,0.3333,0.3332,0.333,0.3322,0.3317,0.3315,0.3312,0.3313,0.3311,0.3308,0.3306,0.3297,0.3298,0.3297,0.3295,0.3285,0.3285,0.3285,0.3287,0.3287,0.3287,0,0,0,0,0,0,0.3338,0.3332,0.3331,0.3325,0.3321,0.3316,0.3313,0.3312,0.3308,0.3308,0.3305,0.3304,0.33,0.3297,0.3298,0.3291,0.3291,0.3291,0.3293,0.3293,0.3293,0.3294,0.3296,0,0,0,0,0,0.3337,0.3333,0.3328,0.3324,0.3322,0.3318,0.3316,0.3314,0.331,0.3308,0.3305,0.3301,0.3298,0.3295,0.3291,0.3287,0.3286,0.3285,0.3285,0.3285,0.3285,0.3284,0.3284,0.3285,0.3285,0.3285,0,0,0.3336,0.3332,0.333,0.3324,0.3321,0.3317,0.3317,0.3313,0.331,0.3308,0.3303,0.3301,0.3297,0.3292,0.329,0.329,0.3285,0.3285,0.3285,0.3285,0.3284,0.3284,0.3284,0.3285,0.3285,0.3285,0,0,0.3332,0.3329,0.3325,0.3322,0.3318,0.3316,0.3315,0.331,0.3309,0.3304,0.3303,0.33,0.3293,0.3291,0.3289,0.3286,0.3285,0.3285,0.3285,0.3284,0.3284,0.3284,0.3284,0.3283,0.3285,0.3285,0.3285,0,0.3331,0.3326,0.3323,0.332,0.3317,0.3316,0.3312,0.331,0.3304,0.3303,0.3303,0.3296,0.3293,0.3289,0.3288,0.3286,0.3286,0.3286,0.3284,0.3284,0.3284,0.3284,0.3283,0.3285,0.3285,0.3285,0.3285,0,0.3325,0.3321,0.3319,0.3315,0.3312,0.3309,0.3306,0.3304,0.3303,0.3301,0.3297,0.3294,0.329,0.3289,0.3288,0.3285,0.3285,0.3285,0.3284,0.3284,0.3284,0.3283,0.3285,0.3285,0.3285,0.3285,0,0,0.332,0.3316,0.3315,0.3314,0.331,0.3307,0.3304,0.3301,0.3299,0.3296,0.3294,0.329,0.329,0.3287,0.3286,0.3285,0.3284,0.3284,0.3284,0.3285,0.3282,0.3283,0.3283,0.3283,0.3283,0.3283,0.3283,0,0.3316,0.3311,0.3309,0.3305,0.3302,0.3301,0.3299,0.3297,0.3295,0.3293,0.3292,0.3289,0.3288,0.3287,0.3286,0.3284,0.3283,0.3284,0.3282,0.3282,0.3283,0.3282,0.3283,0.3282,0.3283,0.3283,0.3282,0,0.331,0.3308,0.3304,0.3301,0.33,0.3298,0.3296,0.3293,0.3291,0.3291,0.3289,0.3288,0.3286,0.3286,0.3283,0.3284,0.3283,0.3282,0.3282,0.3282,0.3282,0.3282,0.3282,0.3282,0.3282,0.3282,0.3282,0,0.3308,0.3304,0.3301,0.33,0.3297,0.3296,0.3295,0.3293,0.3291,0.3289,0.3289,0.3286,0.3285,0.3284,0.3283,0.3283,0.328,0.328,0.328,0.328,0.3279,0.3279,0.3279,0.3279,0.3279,0.3279,0.3279,0,0.3304,0.3301,0.33,0.3298,0.3296,0.3295,0.3292,0.3291,0.329,0.3288,0.3288,0.3286,0.3285,0.3283,0.3282,0.3281,0.328,0.328,0.328,0.328,0.328,0.3279,0.3279,0.3279,0.3279,0.3279,0.3279,0,0.3301,0.33,0.3297,0.3295,0.3294,0.3293,0.3291,0.329,0.3289,0.3288,0.3287,0.3286,0.3284,0.3283,0.3281,0.3281,0.3279,0.3279,0.328,0.328,0.328,0.328,0.3279,0.3279,0.3278,0.3278,0.3278,0,0.3298,0.3296,0.3295,0.3294,0.3293,0.3291,0.329,0.329,0.3289,0.3287,0.3286,0.3285,0.3284,0.3282,0.3281,0.3279,0.3279,0.3279,0.3279,0.328,0.328,0.328,0.328,0.3279,0.3279,0.3279,0.3279,0,0.3294,0.3294,0.3292,0.3291,0.329,0.3289,0.3288,0.3287,0.3287,0.3286,0.3285,0.3284,0.3282,0.3281,0.3281,0.328,0.328,0.3279,0.3279,0.3279,0.328,0.3281,0.328,0.3279,0.3279,0.3279,0.3279,0.3279,0.3291,0.329,0.3289,0.3288,0.3287,0.3287,0.3286,0.3286,0.3285,0.3284,0.3283,0.3282,0.3282,0.3281,0.328,0.328,0.328,0.328,0.328,0.328,0.328,0.3281,0.328,0.328,0.328,0.328,0.328,0,0.3287,0.3287,0.3286,0.3285,0.3284,0.3285,0.3284,0.3284,0.3283,0.3283,0.3282,0.3281,0.3281,0.3281,0.328,0.328,0.328,0.328,0.328,0.328,0.328,0.328,0.328,0.328,0.328,0.328,0.328,0.328,0.3285,0.3283,0.3284,0.3282,0.3282,0.3282,0.3282,0.3281,0.3281,0.3281,0.3281,0.3281,0.3281,0.328,0.328,0.328,0.328,0.3281,0.3281,0.328,0.328,0.328,0.328,0.328,0.328,0.3281,0.3281,0.3281]}]]